When you browse on this site, cookies collect data to enhance your experience and personalize the content and advertising you see.
Visit our Privacy Policy to learn more. By continuing to use the site, you agree to this use of cookies and data.
  • In Deutschland
  • Länderverzeichnis
  • Für 7 Tage
  • Wassertemperatur
  • Wetterkarte
  • Widgets
  • user-avatar
    Anmelden

    Stündliche Wetter Jechegnadsor

    Heute, 21 Januar, Dienstag

    Zeit Temperatur Niederschläge Wind Luftdruck Luftfeuchtigkeit
    00:00 -4°C° 0 mm 1 m/S 654 mmHg 82%
    01:00 -4°C° 0 mm 1 m/S 654 mmHg 83%
    02:00 -6°C° 0 mm 1 m/S 653 mmHg 83%
    03:00 -6°C° 0 mm 1 m/S 653 mmHg 84%
    04:00 -6°C° 0 mm 1 m/S 653 mmHg 84%
    05:00 -6°C° 0 mm 1 m/S 653 mmHg 84%
    06:00 -6°C° 0 mm 1 m/S 653 mmHg 84%
    07:00 -6°C° 0 mm 1 m/S 653 mmHg 81%
    08:00 -4°C° 0 mm 1 m/S 654 mmHg 77%
    09:00 -3°C° 0 mm 1 m/S 654 mmHg 74%
    10:00 -2°C° 0 mm 1 m/S 654 mmHg 72%
    11:00 -1°C° 0 mm 1 m/S 654 mmHg 70%
    12:00 0°C° 0 mm 1 m/S 654 mmHg 68%
    13:00 0°C° 0 mm 1 m/S 654 mmHg 69%
    14:00 0°C° 0 mm 1 m/S 653 mmHg 71%
    15:00 -2°C° 0 mm 2 m/S 653 mmHg 72%
    16:00 -1°C° 0 mm 1 m/S 653 mmHg 73%
    17:00 -3°C° 0 mm 1 m/S 653 mmHg 75%
    18:00 -4°C° 0 mm 1 m/S 653 mmHg 77%
    19:00 -4°C° 0 mm 1 m/S 653 mmHg 76%
    20:00 -6°C° 0 mm 1 m/S 653 mmHg 74%
    21:00 -6°C° 0 mm 1 m/S 654 mmHg 72%
    22:00 -6°C° 0 mm 1 m/S 653 mmHg 72%
    23:00 -6°C° 0 mm 1 m/S 653 mmHg 72%

    Morgen, 22 Januar, Mittwoch

    Zeit Temperatur Niederschläge Wind Luftdruck Luftfeuchtigkeit
    00:00 -7°C° 0 mm 1 m/S 653 mmHg 72%
    01:00 -7°C° 0 mm 1 m/S 653 mmHg 70%
    02:00 -7°C° 0 mm 1 m/S 653 mmHg 69%
    03:00 -7°C° 0 mm 1 m/S 653 mmHg 68%
    04:00 -8°C° 0 mm 0 m/S 653 mmHg 67%
    05:00 -8°C° 0 mm 0 m/S 653 mmHg 67%
    06:00 -8°C° 0 mm 0 m/S 652 mmHg 67%
    07:00 -7°C° 0 mm 0 m/S 653 mmHg 65%
    08:00 -6°C° 0 mm 0 m/S 653 mmHg 64%
    09:00 -5°C° 0 mm 0 m/S 654 mmHg 62%
    10:00 -3°C° 0 mm 1 m/S 653 mmHg 61%
    11:00 -2°C° 0 mm 1 m/S 653 mmHg 61%
    12:00 0°C° 0 mm 1 m/S 653 mmHg 60%
    13:00 0°C° 0 mm 1 m/S 652 mmHg 61%
    14:00 0°C° 0 mm 1 m/S 652 mmHg 63%
    15:00 0°C° 0 mm 1 m/S 652 mmHg 65%
    16:00 -2°C° 0 mm 1 m/S 651 mmHg 66%
    17:00 -3°C° 0 mm 1 m/S 651 mmHg 67%
    18:00 -6°C° 0 mm 1 m/S 650 mmHg 68%
    19:00 -6°C° 0 mm 1 m/S 650 mmHg 66%
    20:00 -6°C° 0 mm 1 m/S 650 mmHg 63%
    21:00 -6°C° 0 mm 1 m/S 650 mmHg 61%
    22:00 -7°C° 0 mm 1 m/S 650 mmHg 62%
    23:00 -7°C° 0 mm 1 m/S 649 mmHg 63%

    übermorgen, 23 Januar, Donnerstag

    Zeit Temperatur Niederschläge Wind Luftdruck Luftfeuchtigkeit
    00:00 -7°C° 0 mm 1 m/S 649 mmHg 64%
    01:00 -7°C° 0 mm 1 m/S 649 mmHg 62%
    02:00 -8°C° 0 mm 1 m/S 648 mmHg 61%
    03:00 -8°C° 0 mm 1 m/S 648 mmHg 60%
    04:00 -8°C° 0 mm 1 m/S 647 mmHg 60%
    05:00 -8°C° 0 mm 1 m/S 647 mmHg 61%
    06:00 -8°C° 0 mm 1 m/S 646 mmHg 61%
    07:00 -7°C° 0 mm 1 m/S 646 mmHg 60%
    08:00 -6°C° 0 mm 1 m/S 646 mmHg 59%
    09:00 -4°C° 0 mm 1 m/S 647 mmHg 58%
    10:00 -3°C° 0 mm 1 m/S 646 mmHg 57%
    11:00 -2°C° 0 mm 1 m/S 646 mmHg 56%
    12:00 -1°C° 0 mm 1 m/S 645 mmHg 55%
    13:00 -1°C° 0 mm 1 m/S 645 mmHg 58%
    14:00 -3°C° 0 mm 2 m/S 645 mmHg 60%
    15:00 -3°C° 0 mm 2 m/S 644 mmHg 62%
    16:00 -2°C° 0 mm 1 m/S 644 mmHg 65%
    17:00 -3°C° 0 mm 1 m/S 644 mmHg 67%
    18:00 -4°C° 0 mm 1 m/S 644 mmHg 69%
    19:00 -4°C° 0.1 mm 1 m/S 645 mmHg 70%
    20:00 -3°C° 0.1 mm 1 m/S 645 mmHg 71%
    21:00 -3°C° 0.1 mm 1 m/S 645 mmHg 73%
    22:00 -3°C° 0.3 mm 1 m/S 645 mmHg 79%
    23:00 -5°C° 0.3 mm 0 m/S 645 mmHg 85%

    24 Januar, Freitag

    Zeit Temperatur Niederschläge Wind Luftdruck Luftfeuchtigkeit
    00:00 -5°C° 0.3 mm 0 m/S 645 mmHg 91%
    01:00 -5°C° 0.2 mm 0 m/S 645 mmHg 92%
    02:00 -5°C° 0.2 mm 0 m/S 645 mmHg 93%
    03:00 -5°C° 0.2 mm 0 m/S 645 mmHg 93%
    04:00 -5°C° 0.1 mm 0 m/S 645 mmHg 93%
    05:00 -5°C° 0.1 mm 0 m/S 646 mmHg 92%
    06:00 -4°C° 0.1 mm 1 m/S 646 mmHg 92%
    07:00 -4°C° 0.3 mm 1 m/S 646 mmHg 91%
    08:00 -4°C° 0.3 mm 1 m/S 647 mmHg 91%
    09:00 -3°C° 0.3 mm 1 m/S 647 mmHg 91%
    10:00 -3°C° 0.4 mm 1 m/S 648 mmHg 89%
    11:00 -4°C° 0.4 mm 2 m/S 648 mmHg 88%
    12:00 -4°C° 0.4 mm 2 m/S 648 mmHg 86%
    13:00 -4°C° 0.5 mm 2 m/S 648 mmHg 86%
    14:00 -4°C° 0.5 mm 2 m/S 648 mmHg 87%
    15:00 -5°C° 0.5 mm 3 m/S 648 mmHg 87%
    16:00 -6°C° 0.4 mm 3 m/S 649 mmHg 85%
    17:00 -6°C° 0.4 mm 3 m/S 649 mmHg 84%
    18:00 -7°C° 0.4 mm 3 m/S 650 mmHg 82%
    19:00 -6°C° 0.1 mm 2 m/S 651 mmHg 81%
    20:00 -7°C° 0.1 mm 2 m/S 651 mmHg 79%
    21:00 -8°C° 0.1 mm 2 m/S 652 mmHg 78%
    22:00 -8°C° 0 mm 2 m/S 652 mmHg 77%
    23:00 -9°C° 0 mm 2 m/S 653 mmHg 75%

    25 Januar, Samstag

    Zeit Temperatur Niederschläge Wind Luftdruck Luftfeuchtigkeit
    00:00 -9°C° 0 mm 2 m/S 653 mmHg 74%
    01:00 -10°C° 0 mm 2 m/S 653 mmHg 73%
    02:00 -10°C° 0 mm 2 m/S 654 mmHg 73%
    03:00 -10°C° 0 mm 2 m/S 654 mmHg 72%
    04:00 -12°C° 0 mm 2 m/S 655 mmHg 73%
    05:00 -12°C° 0 mm 2 m/S 655 mmHg 73%
    06:00 -11°C° 0 mm 1 m/S 655 mmHg 73%
    07:00 -10°C° 0 mm 1 m/S 656 mmHg 71%
    08:00 -9°C° 0 mm 1 m/S 657 mmHg 70%
    09:00 -8°C° 0 mm 1 m/S 658 mmHg 69%
    10:00 -7°C° 0 mm 1 m/S 658 mmHg 67%
    11:00 -6°C° 0 mm 1 m/S 658 mmHg 65%
    12:00 -4°C° 0 mm 1 m/S 658 mmHg 63%
    13:00 -4°C° 0 mm 1 m/S 658 mmHg 64%
    14:00 -4°C° 0 mm 1 m/S 658 mmHg 65%
    15:00 -4°C° 0 mm 1 m/S 658 mmHg 66%
    16:00 -7°C° 0 mm 1 m/S 657 mmHg 65%
    17:00 -8°C° 0 mm 1 m/S 657 mmHg 64%
    18:00 -10°C° 0 mm 1 m/S 657 mmHg 63%
    19:00 -10°C° 0 mm 1 m/S 657 mmHg 60%
    20:00 -10°C° 0 mm 1 m/S 657 mmHg 57%
    21:00 -10°C° 0 mm 1 m/S 658 mmHg 55%
    22:00 -10°C° 0 mm 1 m/S 658 mmHg 54%
    23:00 -10°C° 0 mm 1 m/S 658 mmHg 53%

    26 Januar, Sonntag

    Zeit Temperatur Niederschläge Wind Luftdruck Luftfeuchtigkeit
    00:00 -10°C° 0 mm 1 m/S 658 mmHg 52%
    01:00 -10°C° 0 mm 1 m/S 657 mmHg 51%
    02:00 -10°C° 0 mm 0 m/S 657 mmHg 50%
    03:00 -10°C° 0 mm 0 m/S 657 mmHg 49%
    04:00 -10°C° 0 mm 0 m/S 657 mmHg 49%
    05:00 -10°C° 0 mm 0 m/S 657 mmHg 48%
    06:00 -10°C° 0 mm 0 m/S 657 mmHg 47%
    07:00 -9°C° 0 mm 0 m/S 657 mmHg 49%
    08:00 -7°C° 0 mm 0 m/S 658 mmHg 50%
    09:00 -6°C° 0 mm 0 m/S 659 mmHg 51%
    10:00 -5°C° 0 mm 0 m/S 658 mmHg 52%
    11:00 -3°C° 0 mm 1 m/S 658 mmHg 53%
    12:00 -2°C° 0 mm 1 m/S 658 mmHg 54%
    13:00 -2°C° 0 mm 1 m/S 658 mmHg 57%
    14:00 -1°C° 0 mm 1 m/S 658 mmHg 61%
    15:00 -1°C° 0 mm 1 m/S 657 mmHg 64%
    16:00 -3°C° 0 mm 1 m/S 657 mmHg 63%
    17:00 -4°C° 0 mm 1 m/S 657 mmHg 63%
    18:00 -7°C° 0 mm 0 m/S 656 mmHg 62%
    19:00 -7°C° 0 mm 0 m/S 656 mmHg 60%
    20:00 -7°C° 0 mm 0 m/S 656 mmHg 58%
    21:00 -7°C° 0 mm 0 m/S 656 mmHg 57%
    22:00 -7°C° 0 mm 0 m/S 656 mmHg 56%
    23:00 -7°C° 0 mm 0 m/S 656 mmHg 55%
    Mehr zeigen